This is the latest recevied weather packets stored in our database for station/object KR4KUV. If no packets are shown the sender has not sent any weather packets the latest 10 day(s).
| Time | Temp. | Humidity | Pressure | Rain* | Wind** | Luminosity | Snow |
|---|---|---|---|---|---|---|---|
| 1787416509 | 25° C | 83% | 1018 hPa | 0 mm | - | 207 W/m² | - |
| 1787416204 | 25° C | 85% | 1018.1 hPa | 0 mm | - | 168 W/m² | - |
| 1787415899 | 25° C | 85% | 1018.2 hPa | 0 mm | - | 161 W/m² | - |
| 1787415599 | 25° C | 84% | 1018.2 hPa | 0 mm | - | 163 W/m² | - |
| 1787415294 | 25° C | 86% | 1018.3 hPa | 0 mm | - | 194 W/m² | - |
| 1787414989 | 25° C | 85% | 1018.2 hPa | 0 mm | - | 213 W/m² | - |
| 1787414685 | 25° C | 85% | 1018.4 hPa | 0 mm | - | 228 W/m² | - |
| 1787414384 | 24.44° C | 86% | 1018.4 hPa | 0 mm | - | 189 W/m² | - |
| 1787414083 | 24.44° C | 85% | 1018.5 hPa | 0 mm | - | 206 W/m² | - |
| 1787413778 | 24.44° C | 86% | 1018.4 hPa | 0 mm | - | 176 W/m² | - |
| 1787413473 | 24.44° C | 88% | 1018.6 hPa | 0 mm | - | 158 W/m² | - |
| 1787413168 | 24.44° C | 88% | 1018.6 hPa | 0 mm | - | 142 W/m² | - |
| 1787412865 | 24.44° C | 87% | 1018.7 hPa | 0 mm | - | 174 W/m² | - |
| 1787412564 | 23.89° C | 87% | 1018.7 hPa | 0 mm | - | 168 W/m² | - |
| 1787412260 | 23.89° C | 88% | 1018.6 hPa | 0 mm | - | 141 W/m² | - |
| 1787411956 | 23.89° C | 88% | 1018.9 hPa | 0 mm | - | 120 W/m² | - |
| 1787411653 | 23.89° C | 89% | 1018.6 hPa | 0 mm | - | 122 W/m² | - |
| 1787411348 | 23.89° C | 88% | 1018.8 hPa | 0 mm | - | 108 W/m² | - |
| 1787411043 | 23.89° C | 89% | 1018.8 hPa | 0 mm | - | 96 W/m² | - |
| 1787410739 | 24.44° C | 88% | 1018.7 hPa | 0 mm | - | 88 W/m² | - |
| 1787410435 | 23.89° C | 88% | 1018.5 hPa | 0 mm | - | 148 W/m² | - |
| 1787410129 | 24.44° C | 87% | 1018.6 hPa | 0 mm | - | 183 W/m² | - |
| 1787409826 | 23.89° C | 89% | 1018.6 hPa | 0 mm | - | 204 W/m² | - |
| 1787409521 | 23.89° C | 88% | 1018.6 hPa | 0 mm | - | 192 W/m² | - |
| 1787409217 | 23.89° C | 88% | 1018.4 hPa | 0 mm | - | 178 W/m² | - |
* Rain latest hour (hover to see other rain measurements)
** Current wind speed in m/s (hover to see current wind gust speed)